Weather Roundup
Issued by NWS

Home | Current Version | Previous Version | Text Only | Print | Product List | Glossary On
Versions: 1 2 3 4 5 6 7 8 9 10 11 12 13 14 15 16 17 18 19 20 21 22 23 24 25 26 27 28 29 30 31 32 33 34 35 36 37 38 39 40 41 42 43 44 45 46 47 48 49 50
000
NZUS93 KARX 041910
HRRWXR

CURRENT HOURLY OBSERVATIONS ACROSS
MUCH OF THE UPPER MISSISSIPPI VALLEY
NATIONAL WEATHER SERVICE LA CROSSE WI
200 PM CDT WED MAY 04 2016


...SOUTHEAST MINNESOTA...


CITY           SKY/WX    TMP DP  RH WIND       PRES   REMARKS
ROCHESTER      MOSUNNY   61  34  36 NW21G30   29.94F
ROCHESTER/MAYO FAIR      60  31  33 NW18G26   29.92F
WINONA         MOSUNNY   61  32  33 N16G26    29.90F
AUSTIN         SUNNY     61  32  33 N16G26    29.94F
ALBERT LEA     SUNNY     63  30  29 NW15G24   29.95F
DODGE CENTER   MOSUNNY   61  30  31 N20G29    29.94F
PRESTON        MOSUNNY   58  33  38 N16G25    29.92F
OWATONNA       SUNNY     63  30  29 NW23G30   29.95F
FARIBAULT      SUNNY     63  30  29 NW16G24   29.96F
$$

...ELSEWHERE IN MINNESOTA...


CITY           SKY/WX    TMP DP  RH WIND       PRES   REMARKS
MINNEAPOLIS    SUNNY     64  30  27 NW18G28   29.95F
INTNL FALLS    SUNNY     57  18  21 N7        30.01F
DULUTH         SUNNY     59  21  23 N13G20    29.95F
RED WING       SUNNY     63  28  27 N9G16     29.92F
REDWOOD FALLS  SUNNY     67  30  25 NW14G24   29.99F
MANKATO        SUNNY     64  34  32 N16G31    29.97F
WORTHINGTON    SUNNY     62  36  37 N15G25    30.03F
FAIRMONT       SUNNY     63  34  34 N18G26    29.99F
$$

...SOUTHWEST WISCONSIN...


CITY           SKY/WX    TMP DP  RH WIND       PRES   REMARKS
LA CROSSE      MOSUNNY   64  32  30 N21G28    29.88F
PRAIRIE DU CHI MOSUNNY   61  30  30 NW16      29.87F
LONE ROCK      MOSUNNY   61  30  31 N22G30    29.85S
PLATTEVILLE    PTSUNNY   59  34  39 NW21G31   29.84F
FORT MC COY    MOSUNNY   61  29  29 NW16G30   29.87S
CAMP DOUGLAS   MOSUNNY   59  34  38 NW17G31   29.85S
MAUSTON-NEW LI PTCLDY    60  31  34 NW18G25   29.84S
VIROQUA        FAIR      58  31  35 NW17G30   29.87S
WIS DELLS      PTSUNNY   59  26  27 NW12G23   29.83F
$$

...ELSEWHERE IN WISCONSIN...


CITY           SKY/WX    TMP DP  RH WIND       PRES   REMARKS
MILWAUKEE      CLOUDY    45  37  73 NE9G21    29.80S
MADISON        PTSUNNY   57  35  43 N16       29.81F
GREEN BAY      CLOUDY    51  36  56 N20       29.82S
EAU CLAIRE     SUNNY     62  25  24 N16G26    29.90F
BLACK RVR FLS  FAIR      62  25  24 N15G24    29.87F
MEDFORD        SUNNY     55  26  32 N17G25    29.87S
WAUSAU         SUNNY     58  28  32 N14G29    29.83F
WIS RAPIDS     SUNNY     60  25  26 N17G28    29.86S
MARSHFIELD     SUNNY     61  28  28 N18G28    29.85F
RICE LAKE      SUNNY     60  18  19 N17G26    29.93F
$$

...NORTHEAST IOWA...


CITY           SKY/WX    TMP DP  RH WIND       PRES   REMARKS
WATERLOO       SUNNY     63  33  32 N24G31    29.91F
DUBUQUE        MOSUNNY   58  36  43 N16G25    29.87R
DECORAH        MOSUNNY   59  32  36 N23G33    29.88F
MASON CITY     SUNNY     64  34  32 N23G32    29.96F
CHARLES CITY   SUNNY     63  30  29 N28G36    29.93F
OELWEIN        SUNNY     61  32  33 N17G35    29.91S
$$

...ELSEWHERE IN IOWA...


CITY           SKY/WX    TMP DP  RH WIND       PRES   REMARKS
DES MOINES     MOSUNNY   65  31  28 N21G28    29.97F
IOWA CITY      MOSUNNY   62  35  36 N16       29.91F
FORT DODGE     SUNNY     63  36  36 N12G23    30.00F
MARSHALLTOWN   SUNNY     64  36  35 NW17G28   29.94F
CEDAR RAPIDS   SUNNY     62  36  37 N24G33    29.89F
$$

...NORTHERN ILLINOIS...


CITY           SKY/WX    TMP DP  RH WIND       PRES   REMARKS
CHICAGO-OHARE  CLOUDY    50  37  61 N17       29.79R
CHICAGO-MIDWAY CLOUDY    50  36  58 N9        29.79R
MOLINE         MOSUNNY   62  35  36 N14G25    29.85F
ROCKFORD       CLOUDY    54  37  52 N18G26    29.83S
PEORIA         CLOUDY    56  37  49 N12G29    29.84S
$$

NOTE: "FAIR" INDICATES FEW OR NO CLOUDS BELOW 12,000 FEET WITH NO
SIGNIFICANT WEATHER AND/OR OBSTRUCTIONS TO VISIBILITY. WIND
SPEEDS ARE IN MILES-PER-HOUR.




USA.gov is the U.S. government's official web portal to all federal, state and local government web resources and services.